When you browse on this site, cookies collect data to enhance your experience and personalize the content and advertising you see.
Visit our Privacy Policy to learn more. By continuing to use the site, you agree to this use of cookies and data.

Stündliche Wetter Woensdrecht

Heute, 26 September, Samstag

Zeit Temperatur Niederschläge Wind Luftdruck Luftfeuchtigkeit
00:00 +11°C° 0 mm 8 m/S 747 mmHg 84%
01:00 +11°C° 0.6 mm 8 m/S 747 mmHg 83%
02:00 +11°C° 0.6 mm 8 m/S 747 mmHg 83%
03:00 +11°C° 0.6 mm 8 m/S 747 mmHg 82%
04:00 +11°C° 0.6 mm 7 m/S 748 mmHg 82%
05:00 +10°C° 0.6 mm 6 m/S 748 mmHg 83%
06:00 +10°C° 0.6 mm 5 m/S 749 mmHg 84%
07:00 +11°C° 0.8 mm 6 m/S 749 mmHg 82%
08:00 +12°C° 0.8 mm 7 m/S 749 mmHg 80%
09:00 +12°C° 0.8 mm 7 m/S 750 mmHg 78%
10:00 +14°C° 0.8 mm 6 m/S 750 mmHg 74%
11:00 +15°C° 0.8 mm 5 m/S 750 mmHg 70%
12:00 +17°C° 0.8 mm 4 m/S 750 mmHg 66%
13:00 +16°C° 0.4 mm 5 m/S 750 mmHg 66%
14:00 +16°C° 0.4 mm 5 m/S 750 mmHg 65%
15:00 +16°C° 0.4 mm 5 m/S 750 mmHg 65%
16:00 +15°C° 0.1 mm 5 m/S 751 mmHg 70%
17:00 +14°C° 0.1 mm 4 m/S 751 mmHg 75%
18:00 +13°C° 0.1 mm 4 m/S 751 mmHg 80%
19:00 +13°C° 0.9 mm 4 m/S 751 mmHg 83%
20:00 +13°C° 0.9 mm 5 m/S 751 mmHg 86%
21:00 +13°C° 0.9 mm 6 m/S 751 mmHg 90%
22:00 +12°C° 0.9 mm 7 m/S 750 mmHg 89%
23:00 +12°C° 0.9 mm 8 m/S 750 mmHg 89%

Morgen, 27 September, Sonntag

Zeit Temperatur Niederschläge Wind Luftdruck Luftfeuchtigkeit
00:00 +12°C° 0.9 mm 8 m/S 749 mmHg 88%
01:00 +13°C° 1.4 mm 9 m/S 748 mmHg 88%
02:00 +13°C° 1.4 mm 10 m/S 748 mmHg 87%
03:00 +14°C° 1.4 mm 10 m/S 747 mmHg 87%
04:00 +15°C° 0.6 mm 9 m/S 747 mmHg 88%
05:00 +15°C° 0.6 mm 8 m/S 748 mmHg 89%
06:00 +16°C° 0.6 mm 7 m/S 748 mmHg 90%
07:00 +16°C° 0.1 mm 7 m/S 749 mmHg 87%
08:00 +16°C° 0.1 mm 6 m/S 749 mmHg 84%
09:00 +16°C° 0.1 mm 6 m/S 750 mmHg 80%
10:00 +16°C° 0 mm 5 m/S 751 mmHg 76%
11:00 +17°C° 0 mm 4 m/S 751 mmHg 72%
12:00 +18°C° 0 mm 4 m/S 752 mmHg 68%
13:00 +18°C° 0 mm 3 m/S 752 mmHg 67%
14:00 +18°C° 0 mm 3 m/S 753 mmHg 67%
15:00 +18°C° 0 mm 3 m/S 753 mmHg 66%
16:00 +17°C° 0 mm 3 m/S 753 mmHg 70%
17:00 +16°C° 0 mm 2 m/S 754 mmHg 74%
18:00 +16°C° 0 mm 2 m/S 754 mmHg 78%
19:00 +16°C° 0 mm 2 m/S 754 mmHg 78%
20:00 +16°C° 0 mm 1 m/S 755 mmHg 79%
21:00 +16°C° 0 mm 1 m/S 755 mmHg 79%
22:00 +16°C° 0.1 mm 1 m/S 755 mmHg 81%
23:00 +15°C° 0.1 mm 1 m/S 755 mmHg 83%

übermorgen, 28 September, Montag

Zeit Temperatur Niederschläge Wind Luftdruck Luftfeuchtigkeit
00:00 +15°C° 0.1 mm 1 m/S 755 mmHg 85%
01:00 +15°C° 0.2 mm 2 m/S 755 mmHg 88%
02:00 +16°C° 0.2 mm 2 m/S 755 mmHg 90%
03:00 +16°C° 0.2 mm 3 m/S 755 mmHg 93%
04:00 +16°C° 0.1 mm 3 m/S 755 mmHg 94%
05:00 +17°C° 0.1 mm 3 m/S 755 mmHg 95%
06:00 +17°C° 0.1 mm 3 m/S 756 mmHg 96%
07:00 +18°C° 0.1 mm 4 m/S 756 mmHg 93%
08:00 +18°C° 0.1 mm 4 m/S 756 mmHg 91%
09:00 +19°C° 0.1 mm 4 m/S 756 mmHg 89%
10:00 +19°C° 0.3 mm 4 m/S 756 mmHg 88%
11:00 +19°C° 0.3 mm 4 m/S 756 mmHg 87%
12:00 +19°C° 0.3 mm 4 m/S 756 mmHg 86%
13:00 +19°C° 0.2 mm 5 m/S 756 mmHg 86%
14:00 +19°C° 0.2 mm 5 m/S 756 mmHg 86%
15:00 +19°C° 0.2 mm 5 m/S 756 mmHg 86%
16:00 +17°C° 0.1 mm 5 m/S 757 mmHg 87%
17:00 +17°C° 0.1 mm 5 m/S 757 mmHg 89%
18:00 +17°C° 0.1 mm 4 m/S 757 mmHg 90%
19:00 +16°C° 0 mm 5 m/S 758 mmHg 90%
20:00 +16°C° 0 mm 5 m/S 758 mmHg 91%
21:00 +16°C° 0 mm 5 m/S 758 mmHg 91%
22:00 +16°C° 0.1 mm 5 m/S 759 mmHg 90%
23:00 +15°C° 0.1 mm 5 m/S 759 mmHg 88%

29 September, Dienstag

Zeit Temperatur Niederschläge Wind Luftdruck Luftfeuchtigkeit
00:00 +15°C° 0.1 mm 4 m/S 759 mmHg 87%
01:00 +15°C° 0 mm 4 m/S 759 mmHg 84%
02:00 +14°C° 0 mm 4 m/S 759 mmHg 81%
03:00 +14°C° 0 mm 3 m/S 760 mmHg 79%
04:00 +13°C° 0 mm 3 m/S 760 mmHg 79%
05:00 +13°C° 0 mm 3 m/S 760 mmHg 80%
06:00 +12°C° 0 mm 3 m/S 760 mmHg 80%
07:00 +14°C° 0 mm 3 m/S 760 mmHg 77%
08:00 +16°C° 0 mm 3 m/S 761 mmHg 74%
09:00 +18°C° 0 mm 3 m/S 761 mmHg 71%
10:00 +19°C° 0 mm 3 m/S 761 mmHg 70%
11:00 +19°C° 0 mm 3 m/S 761 mmHg 68%
12:00 +20°C° 0 mm 3 m/S 761 mmHg 67%
13:00 +20°C° 0.4 mm 3 m/S 761 mmHg 69%
14:00 +20°C° 0.4 mm 3 m/S 761 mmHg 71%
15:00 +20°C° 0.4 mm 2 m/S 761 mmHg 73%
16:00 +18°C° 0.2 mm 2 m/S 761 mmHg 78%
17:00 +17°C° 0.2 mm 2 m/S 761 mmHg 82%
18:00 +16°C° 0.2 mm 2 m/S 761 mmHg 87%
19:00 +15°C° 0 mm 2 m/S 761 mmHg 87%
20:00 +13°C° 0 mm 3 m/S 761 mmHg 86%
21:00 +13°C° 0 mm 3 m/S 761 mmHg 86%
22:00 +12°C° 0 mm 3 m/S 761 mmHg 87%
23:00 +12°C° 0 mm 3 m/S 761 mmHg 88%

30 September, Mittwoch

Zeit Temperatur Niederschläge Wind Luftdruck Luftfeuchtigkeit
00:00 +11°C° 0 mm 3 m/S 761 mmHg 89%
01:00 +11°C° 0 mm 3 m/S 761 mmHg 89%
02:00 +11°C° 0 mm 3 m/S 761 mmHg 90%
03:00 +11°C° 0 mm 3 m/S 760 mmHg 90%
04:00 +11°C° 0 mm 3 m/S 760 mmHg 90%
05:00 +11°C° 0 mm 3 m/S 760 mmHg 91%
06:00 +10°C° 0 mm 3 m/S 760 mmHg 91%
07:00 +12°C° 0 mm 3 m/S 760 mmHg 86%
08:00 +13°C° 0 mm 3 m/S 760 mmHg 82%
09:00 +14°C° 0 mm 3 m/S 760 mmHg 77%
10:00 +16°C° 0 mm 3 m/S 760 mmHg 74%
11:00 +17°C° 0 mm 3 m/S 760 mmHg 71%
12:00 +17°C° 0 mm 3 m/S 760 mmHg 67%
13:00 +17°C° 0 mm 2 m/S 760 mmHg 67%
14:00 +18°C° 0 mm 2 m/S 759 mmHg 67%
15:00 +18°C° 0 mm 2 m/S 759 mmHg 66%
16:00 +17°C° 0 mm 2 m/S 759 mmHg 72%
17:00 +16°C° 0 mm 2 m/S 758 mmHg 77%
18:00 +15°C° 0 mm 2 m/S 758 mmHg 82%
19:00 +15°C° 0 mm 2 m/S 758 mmHg 85%
20:00 +15°C° 0 mm 2 m/S 758 mmHg 89%
21:00 +15°C° 0 mm 2 m/S 757 mmHg 92%
22:00 +15°C° 0 mm 2 m/S 757 mmHg 93%
23:00 +14°C° 0 mm 3 m/S 756 mmHg 93%

1 Oktober, Donnerstag

Zeit Temperatur Niederschläge Wind Luftdruck Luftfeuchtigkeit
00:00 +14°C° 0 mm 3 m/S 755 mmHg 94%
01:00 +14°C° 0.1 mm 3 m/S 755 mmHg 94%
02:00 +13°C° 0.1 mm 3 m/S 754 mmHg 94%
03:00 +13°C° 0.1 mm 3 m/S 754 mmHg 94%
04:00 +13°C° 0.4 mm 3 m/S 753 mmHg 92%
05:00 +14°C° 0.4 mm 3 m/S 753 mmHg 91%
06:00 +14°C° 0.4 mm 4 m/S 753 mmHg 89%
07:00 +14°C° 0 mm 4 m/S 752 mmHg 85%
08:00 +15°C° 0 mm 4 m/S 752 mmHg 80%
09:00 +17°C° 0 mm 4 m/S 752 mmHg 75%
10:00 +18°C° 0.1 mm 4 m/S 751 mmHg 71%
11:00 +19°C° 0.1 mm 5 m/S 751 mmHg 68%
12:00 +20°C° 0.1 mm 5 m/S 750 mmHg 64%
13:00 +20°C° 0.3 mm 5 m/S 750 mmHg 65%
14:00 +20°C° 0.3 mm 5 m/S 749 mmHg 66%
15:00 +20°C° 0.3 mm 5 m/S 749 mmHg 68%
16:00 +18°C° 0.1 mm 4 m/S 749 mmHg 72%
17:00 +17°C° 0.1 mm 4 m/S 748 mmHg 77%
18:00 +16°C° 0.1 mm 3 m/S 748 mmHg 82%
19:00 +15°C° 0 mm 4 m/S 748 mmHg 83%
20:00 +14°C° 0 mm 5 m/S 747 mmHg 83%
21:00 +14°C° 0 mm 5 m/S 747 mmHg 84%
22:00 +14°C° 0 mm 6 m/S 747 mmHg 84%
23:00 +14°C° 0 mm 6 m/S 746 mmHg 84%
Mehr zeigen